Погода в Ильгощах

Россия / Тверская область     57°11′50″N   36°29′38″E
темп.,
°C
ветер,
м/с
пор.,
м/с
влажн.,
%
обл.,
%
осадки,
мм/ч
давл.,
гПа
погр.,
м
15 мая, сб
сб1500:00+12вюв269634 0.0 1012114
03:00+11в3897100 0.0 1010185
06:00+12в379799 0.0 1009235
09:00+17ююв478674 0.9 1008619
12:00+21ю4671100 0.1 10071079
15:00+22ю466059 1.3 10061384
18:00+20ююз48666 0.6 10051094
21:00+14ю3108532 0.7 1006228
16 мая, вс
вс1600:00+12ю310955 0.1 1007290
03:00+12ю4119746 0.1 1008383
06:00+13ююз5119386 0.0 1008421
09:00+16ююз588098 0.0 1009705
12:00+17ююз5774100 0.3 10101186
15:00+18юз4770100 0.9 10111100
18:00+18зюз35747 1.0 1011859
21:00+14юз24913 1.2 101357
17 мая, пн
пн1700:00+12юз239538 0.0 101461
03:00+11ююз119511 0.0 101511
06:00+13ююв239376 0.0 1015100
09:00+18юв347340 0.0 1015503
12:00+22юв355569 0.0 10141384
15:00+24вюв4648100 0.0 10121627
18:00+22вюв596498 0.0 1011853
21:00+19вюв51581100 0.1 1009453
18 мая, вт
вт1800:00+17вюв4139478 0.4 1009350
03:00+15вюв4139291 0.4 1007298
06:00+16вюв41386100 0.0 1006386
09:00+21юв6136583 0.0 1005654
12:00+25ююв714539 0.0 10041581
15:00+23ююв7117075 1.5 10041480
18:00+20ююз597652 1.9 10061003
21:00+16ю2288100 2.3 100722
19 мая, ср
ср1900:00+15ююз119185 0.4 100611
03:00+13юв2396100 1.8 100653
06:00+14ююв2594100 0.2 1005179
09:00+17вюв2483100 0.2 1004404
12:00+19вюв4778100 3.6 1002666
15:00+19вюв4780100 6.3 1000750
18:00+17юв4887100 2.1 998420
21:00+14юв3795100 5.3 996267